Location: Camps Bay
(33.9517°S, 18.3844°E)
Time: 16:21:06
(UTC+00:00)

CZ-2D R/B - Pass Details

Date: 18 January 2020
Orbit: 791 x 846 km, 98.6° (Epoch: 18 February)

Event Time Altitude Azimuth Distance (km) Brightness Sun altitude
Exits shadow 00:49:33 15° 237° (WSW) 2,076 4.2 -29.1°
Drops below altitude 10° 00:50:47 10° 226° (SW) 2,396 4.7 -29.0°
Sets 00:53:44 0° 210° (SSW) 3,343 5.7 -28.7°
